Hourly Weather Bolshoe Malinskoe

Today, 27 July, Tuesday

Time Temperature Precipitation Wind Pressure Humidity
00:00 +19°C° 0 mm 1 mps 753 mmHg 65%
01:00 +18°C° 0 mm 1 mps 753 mmHg 67%
02:00 +16°C° 0 mm 1 mps 753 mmHg 70%
03:00 +18°C° 0 mm 1 mps 753 mmHg 70%
04:00 +18°C° 0 mm 1 mps 753 mmHg 70%
05:00 +19°C° 0 mm 1 mps 753 mmHg 70%
06:00 +21°C° 0 mm 1 mps 753 mmHg 62%
07:00 +23°C° 0 mm 1 mps 753 mmHg 54%
08:00 +25°C° 0 mm 1 mps 752 mmHg 46%
09:00 +27°C° 0 mm 1 mps 752 mmHg 42%
10:00 +28°C° 0 mm 2 mps 752 mmHg 37%
11:00 +29°C° 0 mm 2 mps 752 mmHg 33%
12:00 +29°C° 0 mm 2 mps 751 mmHg 33%
13:00 +30°C° 0 mm 2 mps 751 mmHg 32%
14:00 +30°C° 0 mm 2 mps 751 mmHg 32%
15:00 +29°C° 0 mm 1 mps 750 mmHg 35%
16:00 +29°C° 0 mm 1 mps 750 mmHg 38%
17:00 +29°C° 0 mm 1 mps 750 mmHg 41%
18:00 +26°C° 0 mm 1 mps 750 mmHg 48%
19:00 +24°C° 0 mm 2 mps 750 mmHg 55%
20:00 +21°C° 0 mm 2 mps 750 mmHg 62%
21:00 +20°C° 0 mm 2 mps 750 mmHg 68%
22:00 +19°C° 0 mm 2 mps 750 mmHg 73%
23:00 +17°C° 0 mm 2 mps 750 mmHg 79%

Tomorrow, 28 July, Wednesday

Time Temperature Precipitation Wind Pressure Humidity
00:00 +17°C° 0 mm 2 mps 750 mmHg 80%
01:00 +17°C° 0 mm 2 mps 749 mmHg 82%
02:00 +16°C° 0 mm 2 mps 749 mmHg 83%
03:00 +16°C° 0 mm 2 mps 749 mmHg 82%
04:00 +18°C° 0 mm 1 mps 749 mmHg 81%
05:00 +18°C° 0 mm 1 mps 749 mmHg 80%
06:00 +20°C° 0 mm 1 mps 748 mmHg 71%
07:00 +21°C° 0 mm 2 mps 748 mmHg 62%
08:00 +24°C° 0 mm 2 mps 748 mmHg 53%
09:00 +26°C° 0 mm 2 mps 747 mmHg 49%
10:00 +28°C° 0 mm 2 mps 747 mmHg 44%
11:00 +30°C° 0 mm 2 mps 746 mmHg 39%
12:00 +29°C° 0 mm 2 mps 746 mmHg 40%
13:00 +29°C° 0 mm 2 mps 745 mmHg 42%
14:00 +29°C° 0 mm 2 mps 745 mmHg 44%
15:00 +27°C° 0.2 mm 2 mps 744 mmHg 54%
16:00 +25°C° 0.2 mm 2 mps 744 mmHg 64%
17:00 +23°C° 0.2 mm 2 mps 744 mmHg 73%
18:00 +22°C° 1.5 mm 1 mps 744 mmHg 81%
19:00 +21°C° 1.5 mm 1 mps 743 mmHg 88%
20:00 +20°C° 1.5 mm 1 mps 743 mmHg 96%
21:00 +19°C° 2.8 mm 1 mps 743 mmHg 97%
22:00 +19°C° 2.8 mm 1 mps 743 mmHg 98%
23:00 +19°C° 2.8 mm 1 mps 742 mmHg 98%

Day after tomorrow, 29 July, Thursday

Time Temperature Precipitation Wind Pressure Humidity
00:00 +18°C° 0 mm 2 mps 742 mmHg 98%
01:00 +18°C° 0 mm 2 mps 741 mmHg 98%
02:00 +18°C° 0 mm 2 mps 741 mmHg 98%
03:00 +19°C° 0.1 mm 1 mps 741 mmHg 98%
04:00 +19°C° 0.1 mm 1 mps 741 mmHg 98%
05:00 +19°C° 0.1 mm 1 mps 741 mmHg 98%
06:00 +19°C° 0 mm 2 mps 740 mmHg 94%
07:00 +20°C° 0 mm 3 mps 740 mmHg 89%
08:00 +21°C° 0 mm 3 mps 740 mmHg 84%
09:00 +22°C° 0.1 mm 4 mps 740 mmHg 75%
10:00 +25°C° 0.1 mm 4 mps 740 mmHg 65%
11:00 +26°C° 0.1 mm 5 mps 740 mmHg 56%
12:00 +27°C° 0.1 mm 5 mps 740 mmHg 54%
13:00 +27°C° 0.1 mm 5 mps 740 mmHg 51%
14:00 +28°C° 0.1 mm 5 mps 740 mmHg 48%
15:00 +27°C° 0 mm 4 mps 739 mmHg 51%
16:00 +26°C° 0 mm 4 mps 739 mmHg 55%
17:00 +26°C° 0 mm 3 mps 739 mmHg 58%
18:00 +24°C° 0 mm 3 mps 739 mmHg 61%
19:00 +22°C° 0 mm 3 mps 739 mmHg 65%
20:00 +21°C° 0 mm 2 mps 739 mmHg 68%
21:00 +20°C° 0 mm 2 mps 740 mmHg 73%
22:00 +19°C° 0 mm 2 mps 740 mmHg 77%
23:00 +18°C° 0 mm 2 mps 740 mmHg 82%

30 July, Friday

Time Temperature Precipitation Wind Pressure Humidity
00:00 +17°C° 0 mm 2 mps 740 mmHg 86%
01:00 +16°C° 0 mm 2 mps 740 mmHg 91%
02:00 +16°C° 0 mm 2 mps 740 mmHg 95%
03:00 +16°C° 0 mm 2 mps 740 mmHg 93%
04:00 +17°C° 0 mm 2 mps 740 mmHg 91%
05:00 +17°C° 0 mm 2 mps 740 mmHg 88%
06:00 +19°C° 0.1 mm 2 mps 740 mmHg 81%
07:00 +21°C° 0.1 mm 3 mps 740 mmHg 73%
08:00 +22°C° 0.1 mm 3 mps 740 mmHg 66%
09:00 +22°C° 0.4 mm 3 mps 740 mmHg 69%
10:00 +22°C° 0.4 mm 3 mps 740 mmHg 71%
11:00 +22°C° 0.4 mm 4 mps 740 mmHg 74%
12:00 +23°C° 0.1 mm 4 mps 740 mmHg 64%
13:00 +25°C° 0.1 mm 4 mps 740 mmHg 54%
14:00 +26°C° 0.1 mm 4 mps 740 mmHg 44%
15:00 +25°C° 0 mm 4 mps 740 mmHg 49%
16:00 +22°C° 0 mm 4 mps 739 mmHg 53%
17:00 +21°C° 0 mm 4 mps 739 mmHg 58%
18:00 +20°C° 0 mm 3 mps 739 mmHg 62%
19:00 +19°C° 0 mm 3 mps 739 mmHg 67%
20:00 +19°C° 0 mm 3 mps 739 mmHg 72%
21:00 +18°C° 0 mm 3 mps 739 mmHg 75%
22:00 +17°C° 0 mm 2 mps 739 mmHg 78%
23:00 +17°C° 0 mm 2 mps 738 mmHg 81%

31 July, Saturday

Time Temperature Precipitation Wind Pressure Humidity
00:00 +17°C° 0 mm 3 mps 738 mmHg 80%
01:00 +16°C° 0 mm 3 mps 738 mmHg 79%
02:00 +16°C° 0 mm 3 mps 738 mmHg 79%
03:00 +16°C° 0 mm 3 mps 738 mmHg 76%
04:00 +15°C° 0 mm 4 mps 738 mmHg 73%
05:00 +14°C° 0 mm 4 mps 738 mmHg 69%
06:00 +17°C° 0 mm 4 mps 738 mmHg 63%
07:00 +19°C° 0 mm 5 mps 738 mmHg 56%
08:00 +20°C° 0 mm 6 mps 738 mmHg 49%
09:00 +22°C° 0 mm 6 mps 738 mmHg 47%
10:00 +23°C° 0 mm 6 mps 738 mmHg 44%
11:00 +24°C° 0 mm 6 mps 738 mmHg 41%
12:00 +24°C° 0 mm 6 mps 738 mmHg 41%
13:00 +26°C° 0 mm 6 mps 738 mmHg 41%
14:00 +26°C° 0 mm 6 mps 738 mmHg 40%
15:00 +26°C° 0 mm 5 mps 739 mmHg 42%
16:00 +25°C° 0 mm 5 mps 739 mmHg 45%
17:00 +25°C° 0 mm 4 mps 739 mmHg 47%
18:00 +22°C° 0 mm 3 mps 739 mmHg 54%
19:00 +20°C° 0 mm 3 mps 739 mmHg 61%
20:00 +19°C° 0 mm 2 mps 740 mmHg 68%
21:00 +18°C° 0 mm 2 mps 740 mmHg 71%
22:00 +17°C° 0 mm 2 mps 740 mmHg 74%
23:00 +16°C° 0 mm 2 mps 740 mmHg 77%

1 August, Sunday

Time Temperature Precipitation Wind Pressure Humidity
00:00 +16°C° 0 mm 2 mps 740 mmHg 78%
01:00 +16°C° 0 mm 1 mps 740 mmHg 78%
02:00 +16°C° 0 mm 1 mps 740 mmHg 79%
03:00 +16°C° 0 mm 1 mps 740 mmHg 78%
04:00 +16°C° 0 mm 1 mps 740 mmHg 78%
05:00 +18°C° 0 mm 1 mps 740 mmHg 77%
06:00 +19°C° 0 mm 1 mps 740 mmHg 70%
07:00 +20°C° 0 mm 2 mps 740 mmHg 63%
08:00 +23°C° 0 mm 2 mps 740 mmHg 56%
09:00 +24°C° 0 mm 2 mps 740 mmHg 51%
10:00 +26°C° 0 mm 3 mps 740 mmHg 46%
11:00 +27°C° 0 mm 4 mps 740 mmHg 41%
12:00 +27°C° 0 mm 3 mps 739 mmHg 42%
13:00 +28°C° 0 mm 3 mps 739 mmHg 42%
14:00 +28°C° 0 mm 3 mps 739 mmHg 42%
15:00 +26°C° 0.2 mm 3 mps 739 mmHg 54%
16:00 +24°C° 0.2 mm 3 mps 739 mmHg 66%
17:00 +21°C° 0.2 mm 3 mps 739 mmHg 79%
18:00 +20°C° 0.3 mm 2 mps 739 mmHg 82%
19:00 +19°C° 0.3 mm 2 mps 739 mmHg 86%
20:00 +18°C° 0.3 mm 2 mps 740 mmHg 89%
21:00 +17°C° 0 mm 2 mps 740 mmHg 89%
22:00 +17°C° 0 mm 2 mps 740 mmHg 89%
23:00 +16°C° 0 mm 2 mps 740 mmHg 88%
Show more

We Need Your Consent

Meteoprog and our Service Providers may store and access personal data such as cookies, device identifiers or other similar technologies on your device and process such data to personalise content and ads, as well as provide social media features and to analyse the traffic.

  • Store and/or access information on your device

    Cookies, device identifiers or other information can be stored or accessed on your device for the purposes indicated above.

  • Personalised ads and content, ad and content measurement, audience insights, and products development

    Ads and content can be personalised based on a profile. More data can be added to better personalise ads and content. Ad and content performance can be measured. Insights about the audience who saw the ads and content can be derived. Such data can be used to develop or improve user’s experience, systems and software.

By clicking ‘I Agree’ you will allow the use of indicated cookies, device identifiers, web beacons or other similar technologies. Your settings can be changed in the browser on your device.

For certain purposes, legitimate interests may be relied on, rather than consent. You can read more about this in our Privacy and Cookie Policy.